Climatologie pour Saint-Brevin les Pins
Jour • Résumé pour mars 25, 2017 Système :  Métrique    Anglais   Mixte
« - 1 jour
+ 1 jour »
Jour Semaine Mois Année Personnalisé
  Maximum : Minimum : Moyenne :
Température sous abri : 18.4 °C 8.6 °C 12.7 °C
Point de rosée : 10.8 °C 6.8 °C 8.1 °C
Humidité : 91 % 50 % 75 %
Vitesse du vent : 35.4 km/h 0.0 km/h 14.1 km/h
Rafale : 48.3 km/h - -
Direction :- - ENE
Pression : 1021.6 hPa 1012.1 hPa -
Précipitations : 0.0 mm    
Historical Graphs
 
 
Tableau de données pour mars 25, 2017
Heure Tempé Pt rosée Pression Vent Vitesse Rafale Humidité Taux pluie (/hr) Soleil
00:00 10.8 °C 8.7 °C 1021.6 hPa East 12.9 km/h 27.4 km/h 87 % 0.0 mm 0 W/m2
00:05 10.8 °C 8.9 °C 1021.6 hPa NE 14.5 km/h 27.4 km/h 88 % 0.0 mm 0 W/m2
00:10 10.8 °C 8.7 °C 1021.6 hPa ENE 14.5 km/h 20.9 km/h 87 % 0.0 mm 0 W/m2
00:15 10.7 °C 8.8 °C 1021.6 hPa ENE 16.1 km/h 22.5 km/h 88 % 0.0 mm 0 W/m2
00:20 10.7 °C 8.8 °C 1021.2 hPa East 12.9 km/h 22.5 km/h 88 % 0.0 mm 0 W/m2
00:25 10.7 °C 8.8 °C 1021.2 hPa ENE 19.3 km/h 22.5 km/h 88 % 0.0 mm 0 W/m2
00:30 10.7 °C 8.8 °C 1021.2 hPa NE 9.7 km/h 24.1 km/h 88 % 0.0 mm 0 W/m2
00:40 10.9 °C 9.0 °C 1021.2 hPa ENE 16.1 km/h 29.0 km/h 88 % 0.0 mm 0 W/m2
00:45 11.0 °C 8.9 °C 1021.2 hPa East 9.7 km/h 29.0 km/h 87 % 0.0 mm 0 W/m2
00:50 11.0 °C 8.9 °C 1021.2 hPa East 20.9 km/h 24.1 km/h 87 % 0.0 mm 0 W/m2
00:55 11.1 °C 9.0 °C 1020.9 hPa ENE 22.5 km/h 25.7 km/h 87 % 0.0 mm 0 W/m2
01:00 11.1 °C 9.0 °C 1020.9 hPa NE 12.9 km/h 25.7 km/h 87 % 0.0 mm 0 W/m2
01:05 11.1 °C 9.0 °C 1020.9 hPa ENE 16.1 km/h 27.4 km/h 87 % 0.0 mm 0 W/m2
01:10 11.0 °C 8.9 °C 1020.9 hPa NE 17.7 km/h 33.8 km/h 87 % 0.0 mm 0 W/m2
01:15 11.0 °C 8.7 °C 1020.9 hPa ENE 4.8 km/h 33.8 km/h 86 % 0.0 mm 0 W/m2
01:20 11.0 °C 8.7 °C 1020.9 hPa NE 8.0 km/h 25.7 km/h 86 % 0.0 mm 0 W/m2
01:25 11.0 °C 8.7 °C 1020.9 hPa East 8.0 km/h 29.0 km/h 86 % 0.0 mm 0 W/m2
01:30 10.9 °C 8.7 °C 1020.9 hPa East 9.7 km/h 29.0 km/h 86 % 0.0 mm 0 W/m2
01:35 10.9 °C 8.7 °C 1020.9 hPa East 11.3 km/h 25.7 km/h 86 % 0.0 mm 0 W/m2
01:40 10.9 °C 8.7 °C 1020.9 hPa ENE 6.4 km/h 27.4 km/h 86 % 0.0 mm 0 W/m2
01:45 10.9 °C 8.7 °C 1020.9 hPa ENE 8.0 km/h 32.2 km/h 86 % 0.0 mm 0 W/m2
01:50 10.9 °C 8.7 °C 1020.9 hPa East 12.9 km/h 32.2 km/h 86 % 0.0 mm 0 W/m2
01:55 10.9 °C 8.7 °C 1020.9 hPa ENE 17.7 km/h 27.4 km/h 86 % 0.0 mm 0 W/m2
02:00 10.9 °C 8.7 °C 1020.9 hPa East 11.3 km/h 27.4 km/h 86 % 0.0 mm 0 W/m2
02:05 10.9 °C 8.7 °C 1020.9 hPa ENE 19.3 km/h 29.0 km/h 86 % 0.0 mm 0 W/m2
02:10 10.9 °C 8.6 °C 1020.9 hPa East 17.7 km/h 29.0 km/h 86 % 0.0 mm 0 W/m2
02:15 10.9 °C 8.5 °C 1020.9 hPa ENE 8.0 km/h 24.1 km/h 85 % 0.0 mm 0 W/m2
02:20 10.8 °C 8.4 °C 1020.5 hPa East 17.7 km/h 30.6 km/h 85 % 0.0 mm 0 W/m2
02:25 10.8 °C 8.4 °C 1020.5 hPa ESE 8.0 km/h 35.4 km/h 85 % 0.0 mm 0 W/m2
02:30 10.8 °C 8.4 °C 1020.5 hPa East 12.9 km/h 37.0 km/h 85 % 0.0 mm 0 W/m2
02:35 10.7 °C 8.3 °C 1020.5 hPa ENE 24.1 km/h 37.0 km/h 85 % 0.0 mm 0 W/m2
02:40 10.7 °C 8.2 °C 1020.5 hPa ENE 17.7 km/h 25.7 km/h 85 % 0.0 mm 0 W/m2
02:45 10.7 °C 8.2 °C 1020.5 hPa East 14.5 km/h 29.0 km/h 85 % 0.0 mm 0 W/m2
02:50 10.6 °C 8.2 °C 1020.5 hPa East 20.9 km/h 35.4 km/h 85 % 0.0 mm 0 W/m2
02:55 10.7 °C 8.2 °C 1020.5 hPa East 12.9 km/h 40.2 km/h 85 % 0.0 mm 0 W/m2
03:00 10.6 °C 8.2 °C 1020.5 hPa East 16.1 km/h 40.2 km/h 85 % 0.0 mm 0 W/m2
03:05 10.6 °C 8.3 °C 1020.5 hPa East 16.1 km/h 29.0 km/h 86 % 0.0 mm 0 W/m2
03:10 10.6 °C 8.3 °C 1020.5 hPa NE 16.1 km/h 35.4 km/h 86 % 0.0 mm 0 W/m2
03:15 10.5 °C 8.3 °C 1020.5 hPa East 17.7 km/h 35.4 km/h 86 % 0.0 mm 0 W/m2
03:20 10.5 °C 8.3 °C 1020.2 hPa East 9.7 km/h 32.2 km/h 86 % 0.0 mm 0 W/m2
03:25 10.3 °C 8.1 °C 1020.2 hPa East 17.7 km/h 32.2 km/h 86 % 0.0 mm 0 W/m2
03:30 10.2 °C 8.2 °C 1020.2 hPa ENE 12.9 km/h 29.0 km/h 87 % 0.0 mm 0 W/m2
03:35 10.0 °C 7.9 °C 1020.2 hPa ENE 8.0 km/h 29.0 km/h 87 % 0.0 mm 0 W/m2
03:40 9.8 °C 7.8 °C 1019.9 hPa East 11.3 km/h 29.0 km/h 87 % 0.0 mm 0 W/m2
03:45 9.7 °C 7.8 °C 1019.9 hPa NE 8.0 km/h 29.0 km/h 88 % 0.0 mm 0 W/m2
03:50 9.6 °C 7.7 °C 1019.9 hPa East 11.3 km/h 27.4 km/h 88 % 0.0 mm 0 W/m2
03:55 9.5 °C 7.8 °C 1019.9 hPa ENE 14.5 km/h 27.4 km/h 89 % 0.0 mm 0 W/m2
04:00 9.4 °C 7.7 °C 1019.9 hPa NE 12.9 km/h 25.7 km/h 89 % 0.0 mm 0 W/m2
04:05 9.4 °C 7.7 °C 1019.9 hPa ESE 11.3 km/h 25.7 km/h 89 % 0.0 mm 0 W/m2
04:10 9.3 °C 7.6 °C 1019.9 hPa East 19.3 km/h 24.1 km/h 89 % 0.0 mm 0 W/m2
04:20 9.2 °C 7.7 °C 1019.9 hPa ENE 17.7 km/h 25.7 km/h 90 % 0.0 mm 0 W/m2
04:25 9.2 °C 7.6 °C 1019.9 hPa ENE 11.3 km/h 20.9 km/h 90 % 0.0 mm 0 W/m2
04:30 9.1 °C 7.6 °C 1019.9 hPa ENE 20.9 km/h 20.9 km/h 90 % 0.0 mm 0 W/m2
04:35 9.1 °C 7.6 °C 1019.5 hPa ENE 9.7 km/h 22.5 km/h 90 % 0.0 mm 0 W/m2
04:40 9.1 °C 7.7 °C 1019.5 hPa ENE 11.3 km/h 22.5 km/h 91 % 0.0 mm 0 W/m2
04:45 9.1 °C 7.7 °C 1019.5 hPa East 14.5 km/h 20.9 km/h 91 % 0.0 mm 0 W/m2
04:50 9.2 °C 7.8 °C 1019.5 hPa ENE 12.9 km/h 20.9 km/h 91 % 0.0 mm 0 W/m2
04:55 9.2 °C 7.8 °C 1019.5 hPa ENE 12.9 km/h 20.9 km/h 91 % 0.0 mm 0 W/m2
05:00 9.2 °C 7.8 °C 1019.2 hPa East 11.3 km/h 19.3 km/h 91 % 0.0 mm 0 W/m2
05:05 9.2 °C 7.8 °C 1019.2 hPa NNE 4.8 km/h 20.9 km/h 91 % 0.0 mm 0 W/m2
05:10 9.2 °C 7.8 °C 1019.2 hPa East 12.9 km/h 22.5 km/h 91 % 0.0 mm 0 W/m2
05:15 9.1 °C 7.7 °C 1019.2 hPa NE 11.3 km/h 22.5 km/h 91 % 0.0 mm 0 W/m2
05:20 9.1 °C 7.7 °C 1018.8 hPa ENE 11.3 km/h 24.1 km/h 91 % 0.0 mm 0 W/m2
05:25 9.1 °C 7.5 °C 1018.8 hPa NE 16.1 km/h 24.1 km/h 90 % 0.0 mm 0 W/m2
05:30 9.1 °C 7.7 °C 1018.8 hPa ENE 9.7 km/h 20.9 km/h 91 % 0.0 mm 0 W/m2
05:35 9.0 °C 7.6 °C 1018.8 hPa NE 6.4 km/h 20.9 km/h 91 % 0.0 mm 0 W/m2
05:40 8.9 °C 7.6 °C 1018.8 hPa ENE 8.0 km/h 22.5 km/h 91 % 0.0 mm 0 W/m2
05:45 9.0 °C 7.6 °C 1018.8 hPa East 11.3 km/h 25.7 km/h 91 % 0.0 mm 0 W/m2
05:50 9.0 °C 7.6 °C 1018.5 hPa NE 14.5 km/h 25.7 km/h 91 % 0.0 mm 0 W/m2
05:55 8.9 °C 7.4 °C 1018.5 hPa NE 9.7 km/h 20.9 km/h 90 % 0.0 mm 0 W/m2
06:00 8.9 °C 7.6 °C 1018.5 hPa NE 9.7 km/h 25.7 km/h 91 % 0.0 mm 0 W/m2
06:05 8.9 °C 7.6 °C 1018.5 hPa East 16.1 km/h 25.7 km/h 91 % 0.0 mm 0 W/m2
06:10 8.8 °C 7.4 °C 1018.5 hPa East 25.7 km/h 25.7 km/h 91 % 0.0 mm 0 W/m2
06:15 8.8 °C 7.4 °C 1018.5 hPa ENE 16.1 km/h 25.7 km/h 91 % 0.0 mm 0 W/m2
06:20 8.8 °C 7.4 °C 1018.5 hPa ENE 24.1 km/h 25.7 km/h 91 % 0.0 mm 0 W/m2
06:25 8.8 °C 7.4 °C 1018.5 hPa ESE 12.9 km/h 29.0 km/h 91 % 0.0 mm 0 W/m2
06:30 8.8 °C 7.4 °C 1018.5 hPa NNE 6.4 km/h 29.0 km/h 91 % 0.0 mm 0 W/m2
06:35 8.8 °C 7.4 °C 1018.5 hPa NE 4.8 km/h 29.0 km/h 91 % 0.0 mm 0 W/m2
06:40 8.8 °C 7.4 °C 1018.5 hPa ENE 12.9 km/h 27.4 km/h 91 % 0.0 mm 0 W/m2
06:45 8.8 °C 7.4 °C 1018.5 hPa ENE 22.5 km/h 27.4 km/h 91 % 0.0 mm 0 W/m2
06:50 8.8 °C 7.4 °C 1018.5 hPa ENE 17.7 km/h 25.7 km/h 91 % 0.0 mm 0 W/m2
06:55 8.8 °C 7.4 °C 1018.2 hPa NE 11.3 km/h 27.4 km/h 91 % 0.0 mm 0 W/m2
07:00 8.7 °C 7.3 °C 1018.2 hPa ENE 12.9 km/h 27.4 km/h 91 % 0.0 mm 0 W/m2
07:05 8.7 °C 7.2 °C 1018.2 hPa ENE 16.1 km/h 29.0 km/h 90 % 0.0 mm 0 W/m2
07:10 8.7 °C 7.1 °C 1018.2 hPa East 17.7 km/h 29.0 km/h 90 % 0.0 mm 7 W/m2
07:15 8.7 °C 7.3 °C 1018.2 hPa NE 14.5 km/h 24.1 km/h 91 % 0.0 mm 12 W/m2
07:20 8.7 °C 7.3 °C 1018.2 hPa ENE 19.3 km/h 27.4 km/h 91 % 0.0 mm 16 W/m2
07:25 8.7 °C 7.1 °C 1018.5 hPa NE 8.0 km/h 27.4 km/h 90 % 0.0 mm 18 W/m2
07:30 8.7 °C 7.3 °C 1018.2 hPa East 17.7 km/h 27.4 km/h 91 % 0.0 mm 25 W/m2
07:35 8.6 °C 7.2 °C 1018.2 hPa NE 17.7 km/h 25.7 km/h 91 % 0.0 mm 35 W/m2
07:40 8.6 °C 7.2 °C 1018.2 hPa East 14.5 km/h 25.7 km/h 91 % 0.0 mm 42 W/m2
07:45 8.6 °C 7.2 °C 1018.2 hPa ENE 16.1 km/h 27.4 km/h 91 % 0.0 mm 46 W/m2
07:50 8.6 °C 7.2 °C 1018.2 hPa East 11.3 km/h 27.4 km/h 91 % 0.0 mm 47 W/m2
07:55 8.7 °C 7.3 °C 1018.2 hPa East 11.3 km/h 24.1 km/h 91 % 0.0 mm 56 W/m2
08:00 8.7 °C 7.3 °C 1018.2 hPa ENE 12.9 km/h 24.1 km/h 91 % 0.0 mm 65 W/m2
08:05 8.8 °C 7.2 °C 1018.2 hPa ENE 8.0 km/h 24.1 km/h 90 % 0.0 mm 72 W/m2
08:10 8.8 °C 7.3 °C 1018.5 hPa ENE 19.3 km/h 29.0 km/h 90 % 0.0 mm 67 W/m2
08:15 8.9 °C 7.2 °C 1018.5 hPa ENE 4.8 km/h 32.2 km/h 89 % 0.0 mm 86 W/m2
08:20 9.0 °C 7.3 °C 1018.5 hPa ENE 4.8 km/h 32.2 km/h 89 % 0.0 mm 120 W/m2
08:25 9.2 °C 7.4 °C 1018.5 hPa NE 6.4 km/h 27.4 km/h 89 % 0.0 mm 148 W/m2
08:30 9.3 °C 7.6 °C 1018.5 hPa NE 14.5 km/h 27.4 km/h 89 % 0.0 mm 167 W/m2
08:35 9.4 °C 7.6 °C 1018.5 hPa ESE 12.9 km/h 30.6 km/h 88 % 0.0 mm 185 W/m2
08:40 9.6 °C 7.6 °C 1018.5 hPa NE 22.5 km/h 30.6 km/h 87 % 0.0 mm 195 W/m2
08:45 9.7 °C 7.7 °C 1018.5 hPa NE 14.5 km/h 30.6 km/h 87 % 0.0 mm 167 W/m2
08:50 9.7 °C 7.5 °C 1018.5 hPa ENE 17.7 km/h 37.0 km/h 86 % 0.0 mm 146 W/m2
08:55 9.7 °C 7.5 °C 1018.5 hPa ENE 11.3 km/h 37.0 km/h 86 % 0.0 mm 132 W/m2
09:00 9.7 °C 7.4 °C 1018.5 hPa ENE 11.3 km/h 25.7 km/h 86 % 0.0 mm 130 W/m2
09:05 9.6 °C 7.4 °C 1018.5 hPa ENE 8.0 km/h 33.8 km/h 86 % 0.0 mm 149 W/m2
09:10 9.7 °C 7.5 °C 1018.5 hPa East 14.5 km/h 33.8 km/h 86 % 0.0 mm 200 W/m2
09:15 9.8 °C 7.4 °C 1018.5 hPa East 20.9 km/h 38.6 km/h 85 % 0.0 mm 169 W/m2
09:20 9.8 °C 7.4 °C 1018.5 hPa NE 8.0 km/h 38.6 km/h 85 % 0.0 mm 174 W/m2
09:25 9.8 °C 7.4 °C 1018.2 hPa NE 16.1 km/h 35.4 km/h 85 % 0.0 mm 181 W/m2
09:30 9.9 °C 7.5 °C 1017.8 hPa ENE 22.5 km/h 35.4 km/h 85 % 0.0 mm 197 W/m2
09:35 10.0 °C 7.6 °C 1017.8 hPa East 12.9 km/h 32.2 km/h 85 % 0.0 mm 214 W/m2
09:40 10.2 °C 7.8 °C 1017.8 hPa East 25.7 km/h 29.0 km/h 85 % 0.0 mm 274 W/m2
09:45 10.3 °C 7.9 °C 1017.8 hPa NE 16.1 km/h 30.6 km/h 85 % 0.0 mm 343 W/m2
09:50 10.8 °C 8.2 °C 1017.8 hPa ENE 12.9 km/h 30.6 km/h 84 % 0.0 mm 341 W/m2
09:55 10.9 °C 7.9 °C 1018.2 hPa East 20.9 km/h 33.8 km/h 82 % 0.0 mm 388 W/m2
10:00 11.1 °C 8.3 °C 1017.8 hPa East 17.7 km/h 33.8 km/h 83 % 0.0 mm 483 W/m2
10:05 11.3 °C 8.4 °C 1018.2 hPa East 22.5 km/h 29.0 km/h 82 % 0.0 mm 475 W/m2
10:10 11.7 °C 8.3 °C 1017.8 hPa East 27.4 km/h 33.8 km/h 80 % 0.0 mm 450 W/m2
10:15 11.8 °C 8.4 °C 1017.5 hPa NNE 14.5 km/h 33.8 km/h 80 % 0.0 mm 512 W/m2
10:20 12.1 °C 8.5 °C 1017.8 hPa ESE 25.7 km/h 33.8 km/h 79 % 0.0 mm 408 W/m2
10:25 12.0 °C 8.3 °C 1017.5 hPa East 16.1 km/h 33.8 km/h 78 % 0.0 mm 476 W/m2
10:30 11.7 °C 8.2 °C 1017.5 hPa ENE 22.5 km/h 40.2 km/h 79 % 0.0 mm 288 W/m2
10:35 11.6 °C 8.0 °C 1017.5 hPa ENE 19.3 km/h 40.2 km/h 79 % 0.0 mm 288 W/m2
10:40 11.6 °C 8.0 °C 1017.5 hPa ENE 19.3 km/h 37.0 km/h 79 % 0.0 mm 297 W/m2
10:45 11.7 °C 8.2 °C 1017.2 hPa NE 4.8 km/h 37.0 km/h 79 % 0.0 mm 336 W/m2
10:50 11.7 °C 8.0 °C 1017.2 hPa ENE 25.7 km/h 35.4 km/h 78 % 0.0 mm 276 W/m2
10:55 11.7 °C 8.2 °C 1017.2 hPa NE 14.5 km/h 35.4 km/h 79 % 0.0 mm 294 W/m2
11:00 11.8 °C 8.1 °C 1017.5 hPa ENE 8.0 km/h 29.0 km/h 78 % 0.0 mm 332 W/m2
11:05 12.0 °C 8.3 °C 1017.5 hPa ENE 11.3 km/h 29.0 km/h 78 % 0.0 mm 475 W/m2
11:10 12.6 °C 8.6 °C 1017.2 hPa ENE 12.9 km/h 29.0 km/h 77 % 0.0 mm 457 W/m2
11:15 12.8 °C 8.8 °C 1017.2 hPa NE 8.0 km/h 33.8 km/h 77 % 0.0 mm 457 W/m2
11:20 13.0 °C 9.1 °C 1016.8 hPa East 17.7 km/h 33.8 km/h 77 % 0.0 mm 464 W/m2
11:25 13.4 °C 9.3 °C 1017.2 hPa East 25.7 km/h 30.6 km/h 76 % 0.0 mm 573 W/m2
11:30 13.7 °C 9.3 °C 1016.8 hPa ENE 33.8 km/h 33.8 km/h 75 % 0.0 mm 552 W/m2
11:35 13.5 °C 8.8 °C 1016.8 hPa NE 20.9 km/h 37.0 km/h 73 % 0.0 mm 520 W/m2
11:40 13.5 °C 9.0 °C 1016.5 hPa East 20.9 km/h 37.0 km/h 74 % 0.0 mm 571 W/m2
11:45 13.5 °C 8.5 °C 1016.5 hPa NE 9.7 km/h 37.0 km/h 72 % 0.0 mm 519 W/m2
11:50 13.6 °C 9.0 °C 1016.5 hPa ENE 16.1 km/h 37.0 km/h 74 % 0.0 mm 494 W/m2
11:55 13.7 °C 8.9 °C 1016.5 hPa NE 14.5 km/h 35.4 km/h 73 % 0.0 mm 276 W/m2
12:00 13.3 °C 8.7 °C 1016.1 hPa ENE 22.5 km/h 33.8 km/h 74 % 0.0 mm 316 W/m2
12:05 13.2 °C 8.6 °C 1016.1 hPa East 24.1 km/h 33.8 km/h 74 % 0.0 mm 274 W/m2
12:10 13.1 °C 8.6 °C 1016.1 hPa ENE 11.3 km/h 37.0 km/h 74 % 0.0 mm 336 W/m2
12:15 13.3 °C 8.9 °C 1015.8 hPa ENE 22.5 km/h 37.0 km/h 75 % 0.0 mm 385 W/m2
12:20 13.6 °C 9.0 °C 1015.8 hPa NE 20.9 km/h 35.4 km/h 74 % 0.0 mm 439 W/m2
12:25 13.7 °C 9.0 °C 1015.8 hPa NE 19.3 km/h 35.4 km/h 73 % 0.0 mm 313 W/m2
12:30 13.8 °C 9.2 °C 1015.8 hPa East 16.1 km/h 27.4 km/h 74 % 0.0 mm 315 W/m2
12:35 14.1 °C 9.5 °C 1015.8 hPa ESE 12.9 km/h 25.7 km/h 74 % 0.0 mm 643 W/m2
12:40 14.4 °C 9.7 °C 1015.5 hPa East 14.5 km/h 30.6 km/h 73 % 0.0 mm 624 W/m2
12:45 15.1 °C 9.7 °C 1015.5 hPa NE 11.3 km/h 32.2 km/h 70 % 0.0 mm 724 W/m2
12:50 16.1 °C 10.1 °C 1015.1 hPa ENE 25.7 km/h 37.0 km/h 68 % 0.0 mm 749 W/m2
12:55 16.0 °C 9.4 °C 1015.1 hPa ENE 16.1 km/h 37.0 km/h 65 % 0.0 mm 693 W/m2
13:00 16.0 °C 9.6 °C 1015.1 hPa NE 25.7 km/h 35.4 km/h 66 % 0.0 mm 694 W/m2
13:05 16.3 °C 9.7 °C 1014.8 hPa East 25.7 km/h 37.0 km/h 65 % 0.0 mm 643 W/m2
13:10 16.3 °C 9.7 °C 1014.8 hPa ENE 24.1 km/h 41.8 km/h 65 % 0.0 mm 679 W/m2
13:15 16.7 °C 10.8 °C 1014.8 hPa NE 16.1 km/h 41.8 km/h 68 % 0.0 mm 700 W/m2
13:20 16.7 °C 9.3 °C 1014.8 hPa NE 19.3 km/h 37.0 km/h 62 % 0.0 mm 708 W/m2
13:25 16.8 °C 9.5 °C 1014.8 hPa NE 20.9 km/h 48.3 km/h 62 % 0.0 mm 703 W/m2
13:30 16.8 °C 9.2 °C 1014.4 hPa North 19.3 km/h 48.3 km/h 61 % 0.0 mm 701 W/m2
13:35 17.3 °C 9.7 °C 1014.4 hPa NE 16.1 km/h 43.4 km/h 61 % 0.0 mm 700 W/m2
13:40 17.3 °C 9.2 °C 1014.4 hPa ENE 16.1 km/h 35.4 km/h 59 % 0.0 mm 693 W/m2
13:45 17.2 °C 9.1 °C 1014.4 hPa ENE 24.1 km/h 38.6 km/h 59 % 0.0 mm 693 W/m2
13:50 17.1 °C 8.8 °C 1014.4 hPa ENE 24.1 km/h 38.6 km/h 58 % 0.0 mm 687 W/m2
13:55 17.3 °C 9.0 °C 1014.4 hPa ENE 22.5 km/h 40.2 km/h 58 % 0.0 mm 679 W/m2
14:00 17.4 °C 8.8 °C 1014.4 hPa NNE 17.7 km/h 40.2 km/h 57 % 0.0 mm 679 W/m2
14:05 17.6 °C 9.2 °C 1014.1 hPa ENE 8.0 km/h 37.0 km/h 58 % 0.0 mm 673 W/m2
14:10 17.7 °C 9.1 °C 1014.1 hPa ENE 33.8 km/h 37.0 km/h 57 % 0.0 mm 668 W/m2
14:15 17.6 °C 8.9 °C 1014.1 hPa East 25.7 km/h 38.6 km/h 57 % 0.0 mm 666 W/m2
14:20 17.8 °C 8.9 °C 1014.1 hPa ENE 29.0 km/h 38.6 km/h 56 % 0.0 mm 661 W/m2
14:30 18.2 °C 9.2 °C 1013.8 hPa ENE 17.7 km/h 41.8 km/h 56 % 0.0 mm 656 W/m2
14:35 18.1 °C 8.3 °C 1013.8 hPa East 35.4 km/h 41.8 km/h 53 % 0.0 mm 649 W/m2
14:40 17.7 °C 8.0 °C 1013.8 hPa East 25.7 km/h 41.8 km/h 53 % 0.0 mm 633 W/m2
14:45 18.1 °C 8.9 °C 1013.8 hPa East 32.2 km/h 40.2 km/h 55 % 0.0 mm 635 W/m2
14:50 18.1 °C 8.3 °C 1013.4 hPa ENE 27.4 km/h 35.4 km/h 53 % 0.0 mm 628 W/m2
14:55 18.2 °C 8.4 °C 1013.4 hPa ENE 20.9 km/h 38.6 km/h 53 % 0.0 mm 619 W/m2
15:00 18.2 °C 8.7 °C 1013.1 hPa ENE 14.5 km/h 38.6 km/h 54 % 0.0 mm 608 W/m2
15:05 18.4 °C 8.9 °C 1013.1 hPa ENE 27.4 km/h 37.0 km/h 54 % 0.0 mm 601 W/m2
15:10 18.3 °C 8.6 °C 1013.1 hPa ENE 35.4 km/h 43.4 km/h 53 % 0.0 mm 594 W/m2
15:15 18.2 °C 8.1 °C 1013.1 hPa ENE 25.7 km/h 43.4 km/h 52 % 0.0 mm 589 W/m2
15:20 18.2 °C 8.1 °C 1012.8 hPa NE 16.1 km/h 46.7 km/h 52 % 0.0 mm 577 W/m2
15:25 18.3 °C 8.5 °C 1012.8 hPa East 20.9 km/h 46.7 km/h 53 % 0.0 mm 566 W/m2
15:30 18.3 °C 8.2 °C 1013.1 hPa East 20.9 km/h 40.2 km/h 52 % 0.0 mm 559 W/m2
15:35 18.3 °C 7.7 °C 1012.8 hPa NNE 11.3 km/h 37.0 km/h 50 % 0.0 mm 545 W/m2
15:40 18.4 °C 8.4 °C 1012.8 hPa ENE 33.8 km/h 37.0 km/h 52 % 0.0 mm 534 W/m2
15:45 18.4 °C 8.7 °C 1012.8 hPa East 16.1 km/h 37.0 km/h 53 % 0.0 mm 520 W/m2
15:50 18.4 °C 8.1 °C 1012.8 hPa ENE 9.7 km/h 45.1 km/h 51 % 0.0 mm 508 W/m2
15:55 18.4 °C 8.1 °C 1012.8 hPa ESE 17.7 km/h 45.1 km/h 51 % 0.0 mm 503 W/m2
16:00 18.3 °C 7.7 °C 1012.8 hPa East 27.4 km/h 41.8 km/h 50 % 0.0 mm 490 W/m2
16:05 18.3 °C 8.0 °C 1012.4 hPa ESE 20.9 km/h 41.8 km/h 51 % 0.0 mm 478 W/m2
16:10 18.3 °C 7.7 °C 1012.4 hPa NE 14.5 km/h 38.6 km/h 50 % 0.0 mm 466 W/m2
16:15 18.3 °C 8.0 °C 1012.8 hPa NE 20.9 km/h 38.6 km/h 51 % 0.0 mm 452 W/m2
16:20 18.2 °C 7.9 °C 1012.8 hPa East 16.1 km/h 38.6 km/h 51 % 0.0 mm 441 W/m2
16:25 18.1 °C 7.8 °C 1012.4 hPa ESE 25.7 km/h 41.8 km/h 51 % 0.0 mm 427 W/m2
16:30 18.1 °C 7.8 °C 1012.4 hPa East 9.7 km/h 41.8 km/h 51 % 0.0 mm 415 W/m2
16:35 18.3 °C 8.0 °C 1012.4 hPa ESE 22.5 km/h 40.2 km/h 51 % 0.0 mm 401 W/m2
16:40 18.0 °C 8.0 °C 1012.4 hPa ENE 14.5 km/h 38.6 km/h 52 % 0.0 mm 190 W/m2
16:45 18.1 °C 7.8 °C 1012.4 hPa East 14.5 km/h 38.6 km/h 51 % 0.0 mm 197 W/m2
16:50 18.1 °C 8.4 °C 1012.4 hPa ESE 12.9 km/h 29.0 km/h 53 % 0.0 mm 142 W/m2
16:55 18.0 °C 8.5 °C 1012.1 hPa East 9.7 km/h 29.0 km/h 54 % 0.0 mm 174 W/m2
17:00 18.1 °C 8.4 °C 1012.1 hPa ENE 14.5 km/h 33.8 km/h 53 % 0.0 mm 153 W/m2
17:05 17.9 °C 7.6 °C 1012.4 hPa ESE 19.3 km/h 37.0 km/h 51 % 0.0 mm 223 W/m2
17:10 17.8 °C 8.1 °C 1012.1 hPa ENE 8.0 km/h 37.0 km/h 53 % 0.0 mm 276 W/m2
17:15 18.1 °C 8.9 °C 1012.4 hPa NE 6.4 km/h 27.4 km/h 55 % 0.0 mm 265 W/m2
17:20 17.7 °C 7.7 °C 1012.1 hPa East 9.7 km/h 37.0 km/h 52 % 0.0 mm 141 W/m2
17:25 17.3 °C 7.4 °C 1012.1 hPa ENE 29.0 km/h 38.6 km/h 52 % 0.0 mm 137 W/m2
17:30 17.3 °C 7.6 °C 1012.1 hPa ESE 12.9 km/h 38.6 km/h 53 % 0.0 mm 130 W/m2
17:35 17.4 °C 8.0 °C 1012.1 hPa East 16.1 km/h 37.0 km/h 54 % 0.0 mm 132 W/m2
17:40 17.6 °C 8.1 °C 1012.1 hPa East 14.5 km/h 27.4 km/h 54 % 0.0 mm 146 W/m2
17:45 17.6 °C 8.4 °C 1012.1 hPa East 11.3 km/h 32.2 km/h 55 % 0.0 mm 123 W/m2
17:50 17.4 °C 8.0 °C 1012.1 hPa SE 20.9 km/h 32.2 km/h 54 % 0.0 mm 79 W/m2
17:55 17.2 °C 8.0 °C 1012.1 hPa ENE 8.0 km/h 30.6 km/h 55 % 0.0 mm 60 W/m2
18:00 16.9 °C 7.8 °C 1012.4 hPa East 16.1 km/h 30.6 km/h 55 % 0.0 mm 62 W/m2
18:05 16.8 °C 7.7 °C 1012.4 hPa East 8.0 km/h 35.4 km/h 55 % 0.0 mm 62 W/m2
18:10 16.7 °C 7.8 °C 1012.4 hPa ESE 14.5 km/h 35.4 km/h 56 % 0.0 mm 62 W/m2
18:15 16.6 °C 7.8 °C 1012.4 hPa ENE 12.9 km/h 29.0 km/h 56 % 0.0 mm 56 W/m2
18:20 16.6 °C 8.0 °C 1012.4 hPa ENE 16.1 km/h 29.0 km/h 57 % 0.0 mm 63 W/m2
18:25 16.4 °C 7.9 °C 1012.4 hPa ENE 19.3 km/h 24.1 km/h 57 % 0.0 mm 47 W/m2
18:30 16.3 °C 8.0 °C 1012.4 hPa ESE 12.9 km/h 24.1 km/h 58 % 0.0 mm 42 W/m2
18:35 16.1 °C 8.3 °C 1012.4 hPa ENE 8.0 km/h 22.5 km/h 60 % 0.0 mm 39 W/m2
18:40 16.0 °C 8.2 °C 1012.4 hPa East 12.9 km/h 29.0 km/h 60 % 0.0 mm 35 W/m2
18:45 15.9 °C 8.2 °C 1012.4 hPa East 20.9 km/h 29.0 km/h 60 % 0.0 mm 32 W/m2
18:50 15.9 °C 8.1 °C 1012.4 hPa East 11.3 km/h 29.0 km/h 60 % 0.0 mm 28 W/m2
18:55 15.8 °C 8.0 °C 1012.4 hPa East 14.5 km/h 24.1 km/h 60 % 0.0 mm 25 W/m2
19:00 15.7 °C 7.9 °C 1012.4 hPa East 8.0 km/h 29.0 km/h 60 % 0.0 mm 21 W/m2
19:05 15.5 °C 8.0 °C 1012.4 hPa East 12.9 km/h 29.0 km/h 61 % 0.0 mm 18 W/m2
19:10 15.3 °C 8.0 °C 1012.4 hPa East 8.0 km/h 24.1 km/h 62 % 0.0 mm 14 W/m2
19:15 15.1 °C 8.1 °C 1012.4 hPa East 12.9 km/h 20.9 km/h 63 % 0.0 mm 11 W/m2
19:20 14.9 °C 8.2 °C 1012.8 hPa ENE 11.3 km/h 20.9 km/h 64 % 0.0 mm 7 W/m2
19:25 14.8 °C 8.0 °C 1012.8 hPa East 11.3 km/h 17.7 km/h 64 % 0.0 mm 5 W/m2
19:30 14.6 °C 8.1 °C 1012.8 hPa East 11.3 km/h 17.7 km/h 65 % 0.0 mm 0 W/m2
19:35 14.4 °C 8.2 °C 1012.8 hPa East 8.0 km/h 17.7 km/h 66 % 0.0 mm 0 W/m2
19:40 14.2 °C 8.0 °C 1012.8 hPa East 4.8 km/h 17.7 km/h 66 % 0.0 mm 0 W/m2
19:45 14.1 °C 8.1 °C 1013.1 hPa SE 3.2 km/h 12.9 km/h 67 % 0.0 mm 0 W/m2
19:50 13.9 °C 8.1 °C 1013.1 hPa ENE 6.4 km/h 14.5 km/h 68 % 0.0 mm 0 W/m2
19:55 13.9 °C 8.1 °C 1013.1 hPa East 8.0 km/h 17.7 km/h 68 % 0.0 mm 0 W/m2
20:00 13.8 °C 8.0 °C 1013.1 hPa ESE 9.7 km/h 17.7 km/h 68 % 0.0 mm 0 W/m2
20:05 13.8 °C 8.0 °C 1013.1 hPa East 12.9 km/h 17.7 km/h 68 % 0.0 mm 0 W/m2
20:10 13.8 °C 8.2 °C 1013.1 hPa East 9.7 km/h 17.7 km/h 69 % 0.0 mm 0 W/m2
20:15 13.8 °C 8.0 °C 1013.4 hPa ESE 6.4 km/h 16.1 km/h 68 % 0.0 mm 0 W/m2
20:20 13.7 °C 8.1 °C 1013.4 hPa East 11.3 km/h 14.5 km/h 69 % 0.0 mm 0 W/m2
20:25 13.6 °C 8.0 °C 1013.4 hPa East 8.0 km/h 14.5 km/h 69 % 0.0 mm 0 W/m2
20:30 13.4 °C 8.0 °C 1013.4 hPa ESE 6.4 km/h 14.5 km/h 70 % 0.0 mm 0 W/m2
20:35 13.3 °C 7.9 °C 1013.8 hPa East 3.2 km/h 14.5 km/h 70 % 0.0 mm 0 W/m2
20:40 13.1 °C 8.0 °C 1013.8 hPa ENE 3.2 km/h 14.5 km/h 71 % 0.0 mm 0 W/m2
20:45 13.0 °C 7.9 °C 1013.8 hPa East 8.0 km/h 17.7 km/h 71 % 0.0 mm 0 W/m2
20:50 13.1 °C 7.9 °C 1013.8 hPa East 4.8 km/h 17.7 km/h 71 % 0.0 mm 0 W/m2
20:55 13.1 °C 7.9 °C 1013.8 hPa ESE 4.8 km/h 14.5 km/h 71 % 0.0 mm 0 W/m2
21:00 13.0 °C 7.9 °C 1013.8 hPa East 1.6 km/h 12.9 km/h 71 % 0.0 mm 0 W/m2
21:05 13.0 °C 7.9 °C 1013.8 hPa East 4.8 km/h 14.5 km/h 71 % 0.0 mm 0 W/m2
21:10 12.9 °C 8.0 °C 1013.8 hPa East 16.1 km/h 16.1 km/h 72 % 0.0 mm 0 W/m2
21:15 12.8 °C 7.9 °C 1013.8 hPa ENE 8.0 km/h 16.1 km/h 72 % 0.0 mm 0 W/m2
21:20 12.6 °C 7.7 °C 1013.8 hPa East 9.7 km/h 16.1 km/h 72 % 0.0 mm 0 W/m2
21:25 12.3 °C 7.6 °C 1013.8 hPa East 8.0 km/h 12.9 km/h 73 % 0.0 mm 0 W/m2
21:30 12.1 °C 7.6 °C 1014.1 hPa East 9.7 km/h 12.9 km/h 74 % 0.0 mm 0 W/m2
21:35 11.9 °C 7.6 °C 1014.1 hPa East 3.2 km/h 11.3 km/h 75 % 0.0 mm 0 W/m2
21:40 11.8 °C 7.7 °C 1014.1 hPa East 8.0 km/h 12.9 km/h 76 % 0.0 mm 0 W/m2
21:45 11.7 °C 7.6 °C 1014.1 hPa East 8.0 km/h 12.9 km/h 76 % 0.0 mm 0 W/m2
21:50 11.6 °C 7.5 °C 1014.1 hPa East 6.4 km/h 12.9 km/h 76 % 0.0 mm 0 W/m2
21:55 11.5 °C 7.6 °C 1014.1 hPa ENE 6.4 km/h 11.3 km/h 77 % 0.0 mm 0 W/m2
22:00 11.4 °C 7.5 °C 1014.1 hPa East 8.0 km/h 12.9 km/h 77 % 0.0 mm 0 W/m2
22:05 11.3 °C 7.4 °C 1014.1 hPa ENE 6.4 km/h 12.9 km/h 77 % 0.0 mm 0 W/m2
22:10 11.1 °C 7.4 °C 1014.1 hPa ENE 6.4 km/h 11.3 km/h 78 % 0.0 mm 0 W/m2
22:15 11.1 °C 7.4 °C 1014.4 hPa ENE 11.3 km/h 12.9 km/h 78 % 0.0 mm 0 W/m2
22:25 10.9 °C 7.2 °C 1014.4 hPa ENE 3.2 km/h 12.9 km/h 78 % 0.0 mm 0 W/m2
22:30 10.8 °C 7.3 °C 1014.4 hPa ESE 11.3 km/h 14.5 km/h 79 % 0.0 mm 0 W/m2
22:35 10.9 °C 7.3 °C 1014.4 hPa ENE 11.3 km/h 14.5 km/h 78 % 0.0 mm 0 W/m2
22:40 11.0 °C 7.3 °C 1014.4 hPa East 8.0 km/h 12.9 km/h 78 % 0.0 mm 0 W/m2
22:45 10.9 °C 7.3 °C 1014.4 hPa ENE 8.0 km/h 12.9 km/h 78 % 0.0 mm 0 W/m2
22:50 10.8 °C 7.1 °C 1014.4 hPa East 4.8 km/h 12.9 km/h 78 % 0.0 mm 0 W/m2
22:55 10.8 °C 7.3 °C 1014.4 hPa East 3.2 km/h 12.9 km/h 79 % 0.0 mm 0 W/m2
23:00 10.8 °C 7.3 °C 1014.4 hPa ESE 4.8 km/h 12.9 km/h 79 % 0.0 mm 0 W/m2
23:05 10.7 °C 7.2 °C 1014.4 hPa ESE 1.6 km/h 11.3 km/h 79 % 0.0 mm 0 W/m2
23:10 10.7 °C 7.2 °C 1014.4 hPa East 1.6 km/h 11.3 km/h 79 % 0.0 mm 0 W/m2
23:15 10.8 °C 7.5 °C 1014.8 hPa East 4.8 km/h 11.3 km/h 80 % 0.0 mm 0 W/m2
23:20 10.8 °C 7.3 °C 1014.8 hPa ESE 4.8 km/h 11.3 km/h 79 % 0.0 mm 0 W/m2
23:25 10.8 °C 7.3 °C 1014.8 hPa ESE 4.8 km/h 11.3 km/h 79 % 0.0 mm 0 W/m2
23:30 10.6 °C 7.3 °C 1014.8 hPa East 4.8 km/h 9.7 km/h 80 % 0.0 mm 0 W/m2
23:35 10.4 °C 7.1 °C 1014.8 hPa ENE 4.8 km/h 8.0 km/h 80 % 0.0 mm 0 W/m2
23:40 10.2 °C 7.1 °C 1014.8 hPa ENE 4.8 km/h 8.0 km/h 81 % 0.0 mm 0 W/m2
23:45 9.9 °C 7.0 °C 1014.4 hPa ENE 4.8 km/h 8.0 km/h 82 % 0.0 mm 0 W/m2
23:50 9.7 °C 7.0 °C 1014.4 hPa ENE 3.2 km/h 8.0 km/h 83 % 0.0 mm 0 W/m2
23:55 9.7 °C 6.8 °C 1014.4 hPa Calm   9.7 km/h 82 % 0.0 mm 0 W/m2
Avec l'autorisation de Weather Underground - 1.75 mb